レモン彗星

P/2020 WJ5 ( Lemmon )

English version
Home page
Updated on June 26, 2022

---------------------------------------------------------------------

・ プロフィール

発見日 2020年11月18日
発見光度 20.7等
発見者 Mt. Lemmon Survey

・ 写真集

・ 軌道要素

Epoch 2021 July 5.0 TT = JDT 2459400.5                                          
T 2021 July 3.85744 TT                                  Rudenko                 
q   4.9871160            (2000.0)            P               Q                  
n   0.06675144     Peri.  338.46487     -0.91654866     -0.39966095             
a   6.0186021      Node   177.81217     +0.39935096     -0.91657332             
e   0.1713830      Incl.   22.29054     +0.02138593     -0.01282500             
P  14.8                                                                         
From 229 observations 2020 Nov. 18-2022 Apr. 26, mean residual 0".4.            

・ 光度変化

        m1 = -6.0 + 5 logΔ + 30 log r(t - 200)

---------------------------------------------------------------------

軌道要素はM.P.E.C. 2022-H121に掲載されたものです。
光度グラフはComet for Windowsで作成したものです。

---------------------------------------------------------------------

Copyright(C) Seiichi Yoshida (comet@aerith.net). All rights reserved.